AFL1404 UUEE-USSS

Flight info

Callsign AFL1404
Flight time 1h 59m
Altitude 33000
Route N0470F330 KOGOM L94 EKPIR M864 INKEB L94 NAMER T765 GEMKI L94 LOMBI
Aircraft A333/H-VGDW/C

Departure

Time 2026-04-30 04:21
Airport Sheremetyevo International Airport (UUEE)

Arrival

Time 2026-04-30 06:21
Airport Koltsovo Airport (USSS)
Time Latitude Longitude Altitude Speed Heading
2026-04-30 03:59 55.98017 37.41830 648 ft 0 kts 255°
2026-04-30 04:12 55.98019 37.41838 647 ft 2 kts 255°
2026-04-30 04:12 55.98023 37.41866 647 ft 2 kts 255°
2026-04-30 04:12 55.98027 37.41893 647 ft 2 kts 255°
2026-04-30 04:13 55.98031 37.41920 647 ft 2 kts 255°
2026-04-30 04:13 55.98035 37.41944 647 ft 2 kts 237°
2026-04-30 04:13 55.98045 37.41959 647 ft 2 kts 204°
2026-04-30 04:13 55.98057 37.41963 647 ft 2 kts 169°
2026-04-30 04:14 55.98072 37.41956 647 ft 2 kts 166°
2026-04-30 04:14 55.98085 37.41950 647 ft 0 kts 165°
2026-04-30 04:16 55.98084 37.41950 647 ft 1 kts 165°
2026-04-30 04:16 55.98060 37.41962 647 ft 7 kts 165°
2026-04-30 04:17 55.97992 37.41995 647 ft 13 kts 165°
2026-04-30 04:17 55.97880 37.42049 647 ft 20 kts 165°
2026-04-30 04:17 55.97743 37.42114 647 ft 21 kts 163°
2026-04-30 04:17 55.97706 37.42325 647 ft 21 kts 75°
2026-04-30 04:18 55.97744 37.42574 647 ft 21 kts 75°
2026-04-30 04:18 55.97782 37.42825 647 ft 21 kts 75°
2026-04-30 04:18 55.97821 37.43076 647 ft 21 kts 75°
2026-04-30 04:18 55.97857 37.43326 647 ft 21 kts 75°
2026-04-30 04:19 55.97895 37.43579 647 ft 21 kts 75°
2026-04-30 04:19 55.97932 37.43832 647 ft 21 kts 75°
2026-04-30 04:19 55.97892 37.44048 647 ft 21 kts 159°
2026-04-30 04:19 55.97776 37.43970 647 ft 21 kts 250°
2026-04-30 04:20 55.97770 37.43934 647 ft 3 kts 255°
2026-04-30 04:20 55.97760 37.43871 647 ft 11 kts 255°
2026-04-30 04:20 55.97692 37.43418 647 ft 64 kts 255°
2026-04-30 04:20 55.97532 37.42353 647 ft 113 kts 255°
2026-04-30 04:21 55.97294 37.40726 663 ft 156 kts 257°
2026-04-30 04:21 55.97002 37.38799 1138 ft 158 kts 256°
2026-04-30 04:21 55.96707 37.36971 1797 ft 153 kts 256°
2026-04-30 04:21 55.96416 37.35154 2362 ft 150 kts 257°
2026-04-30 04:22 55.96126 37.33337 2801 ft 154 kts 258°
2026-04-30 04:22 55.95837 37.31500 3263 ft 154 kts 258°
2026-04-30 04:22 55.95548 37.29652 3710 ft 155 kts 258°
2026-04-30 04:22 55.95243 37.27685 3916 ft 177 kts 258°
2026-04-30 04:23 55.94887 37.25391 4035 ft 207 kts 257°
2026-04-30 04:23 55.94466 37.22691 4121 ft 244 kts 257°
2026-04-30 04:23 55.93990 37.19654 4680 ft 255 kts 257°
2026-04-30 04:23 55.93510 37.16600 5552 ft 258 kts 257°
2026-04-30 04:24 55.93022 37.13503 6372 ft 261 kts 257°
2026-04-30 04:24 55.92528 37.10365 7178 ft 264 kts 257°
2026-04-30 04:24 55.92034 37.07229 7977 ft 267 kts 257°
2026-04-30 04:24 55.91720 37.03962 8743 ft 268 kts 275°
2026-04-30 04:25 55.92186 37.00780 9517 ft 267 kts 300°
2026-04-30 04:25 55.93389 36.98239 10046 ft 277 kts 322°
2026-04-30 04:25 55.94948 36.96103 10186 ft 285 kts 324°
2026-04-30 04:25 55.96537 36.94014 10217 ft 280 kts 325°
2026-04-30 04:26 55.98302 36.92569 10499 ft 287 kts 348°
2026-04-30 04:26 56.00386 36.92565 10635 ft 315 kts 11°
2026-04-30 04:26 56.02409 36.94148 11221 ft 324 kts 30°
2026-04-30 04:26 56.04342 36.96267 12089 ft 327 kts 30°
2026-04-30 04:27 56.06287 36.98444 12848 ft 331 kts 31°
2026-04-30 04:27 56.08245 37.00671 13611 ft 335 kts 31°
2026-04-30 04:27 56.10114 37.03238 14337 ft 342 kts 43°
2026-04-30 04:27 56.11572 37.06650 15057 ft 349 kts 59°
2026-04-30 04:28 56.12477 37.10718 15756 ft 355 kts 72°
2026-04-30 04:28 56.13169 37.15007 16441 ft 360 kts 72°
2026-04-30 04:28 56.13845 37.19351 17123 ft 364 kts 73°
2026-04-30 04:28 56.14297 37.23799 17752 ft 371 kts 86°
2026-04-30 04:29 56.14046 37.28421 18385 ft 377 kts 103°
2026-04-30 04:29 56.13033 37.32785 18967 ft 383 kts 122°
2026-04-30 04:29 56.11292 37.36419 19550 ft 386 kts 141°
2026-04-30 04:29 56.09012 37.38954 20191 ft 387 kts 154°
2026-04-30 04:30 56.06612 37.41170 20795 ft 390 kts 155°
2026-04-30 04:30 56.04172 37.43364 21406 ft 393 kts 156°
2026-04-30 04:30 56.01708 37.45533 22005 ft 396 kts 156°
2026-04-30 04:30 55.99224 37.47720 22576 ft 399 kts 154°
2026-04-30 04:31 55.96935 37.50596 23143 ft 407 kts 141°
2026-04-30 04:31 55.95080 37.54377 23627 ft 416 kts 126°
2026-04-30 04:31 55.93775 37.59027 24095 ft 425 kts 111°
2026-04-30 04:31 55.93076 37.64187 24609 ft 429 kts 104°
2026-04-30 04:32 55.92444 37.69410 25065 ft 433 kts 104°
2026-04-30 04:32 55.91778 37.74669 25550 ft 435 kts 108°
2026-04-30 04:32 55.90720 37.79724 26014 ft 435 kts 118°
2026-04-30 04:32 55.89236 37.84415 26496 ft 435 kts 124°
2026-04-30 04:33 55.87637 37.89022 26918 ft 438 kts 124°
2026-04-30 04:33 55.86038 37.93592 27338 ft 441 kts 124°
2026-04-30 04:33 55.84406 37.98247 27795 ft 443 kts 124°
2026-04-30 04:33 55.82763 38.02933 28185 ft 447 kts 124°
2026-04-30 04:34 55.81283 38.07808 28597 ft 452 kts 114°
2026-04-30 04:34 55.80365 38.13176 29030 ft 456 kts 103°
2026-04-30 04:34 55.80019 38.18774 29527 ft 456 kts 91°
2026-04-30 04:34 55.80086 38.24418 30082 ft 454 kts 89°
2026-04-30 04:35 55.80176 38.29946 30569 ft 453 kts 89°
2026-04-30 04:35 55.80272 38.35550 31094 ft 451 kts 88°
2026-04-30 04:35 55.80400 38.41115 31574 ft 450 kts 85°
2026-04-30 04:35 55.80954 38.46583 32030 ft 449 kts 73°
2026-04-30 04:36 55.81931 38.51851 32521 ft 446 kts 70°
2026-04-30 04:36 55.82967 38.57059 32943 ft 446 kts 70°
2026-04-30 04:36 55.84014 38.62281 33155 ft 451 kts 70°
2026-04-30 04:37 55.86190 38.72780 33222 ft 456 kts 65°
2026-04-30 04:37 55.88881 38.82978 33227 ft 452 kts 64°
2026-04-30 04:38 55.91561 38.93031 33226 ft 446 kts 64°
2026-04-30 04:38 55.94217 39.02995 33226 ft 442 kts 65°
2026-04-30 04:39 55.96161 39.13362 33227 ft 442 kts 78°
2026-04-30 04:39 55.96951 39.24208 33229 ft 445 kts 84°
2026-04-30 04:40 55.97571 39.35270 33227 ft 448 kts 84°
2026-04-30 04:40 55.98183 39.46381 33226 ft 448 kts 84°
2026-04-30 04:41 55.98783 39.57383 33222 ft 447 kts 84°
2026-04-30 04:41 56.00186 39.68252 33333 ft 457 kts 69°
2026-04-30 04:41 56.01512 39.73456 33575 ft 459 kts 63°
2026-04-30 04:42 56.02708 39.78677 34024 ft 457 kts 72°
2026-04-30 04:42 56.03491 39.84190 34435 ft 457 kts 80°
2026-04-30 04:42 56.03851 39.89843 34756 ft 457 kts 88°
2026-04-30 04:42 56.03901 39.95539 35042 ft 459 kts 90°
2026-04-30 04:43 56.03931 40.01282 35174 ft 464 kts 90°
2026-04-30 04:43 56.03985 40.12909 35215 ft 468 kts 90°
2026-04-30 04:44 56.04030 40.24517 35216 ft 464 kts 90°
2026-04-30 04:44 56.04065 40.35912 35214 ft 458 kts 90°
2026-04-30 04:45 56.04092 40.47258 35213 ft 454 kts 90°
2026-04-30 04:45 56.04108 40.58547 35213 ft 453 kts 90°
2026-04-30 04:46 56.04115 40.69861 35213 ft 455 kts 90°
2026-04-30 04:46 56.04140 40.81163 35210 ft 459 kts 90°
2026-04-30 04:47 56.04195 40.92613 35208 ft 461 kts 90°
2026-04-30 04:47 56.04254 41.04084 35206 ft 460 kts 90°
2026-04-30 04:48 56.04313 41.15520 35205 ft 459 kts 90°
2026-04-30 04:48 56.04370 41.26946 35205 ft 458 kts 90°
2026-04-30 04:49 56.04422 41.38275 35204 ft 459 kts 90°
2026-04-30 04:49 56.04468 41.49728 35204 ft 460 kts 90°
2026-04-30 04:50 56.04508 41.61197 35203 ft 461 kts 90°
2026-04-30 04:50 56.04540 41.72627 35202 ft 462 kts 91°
2026-04-30 04:51 56.04563 41.84111 35202 ft 461 kts 91°
2026-04-30 04:51 56.04577 41.95592 35205 ft 460 kts 91°
2026-04-30 04:52 56.04582 42.07042 35209 ft 459 kts 91°
2026-04-30 04:52 56.04577 42.18405 35209 ft 460 kts 91°
2026-04-30 04:53 56.04562 42.29867 35207 ft 460 kts 91°
2026-04-30 04:53 56.04537 42.41339 35206 ft 461 kts 91°
2026-04-30 04:54 56.04497 42.52814 35205 ft 461 kts 92°
2026-04-30 04:54 56.04280 42.64187 35204 ft 460 kts 93°
2026-04-30 04:55 56.04059 42.75645 35203 ft 461 kts 93°
2026-04-30 04:55 56.03854 42.87129 35203 ft 461 kts 93°
2026-04-30 04:56 56.03693 42.96668 35202 ft 462 kts 93°
2026-04-30 04:56 56.03473 43.10042 35201 ft 462 kts 93°
2026-04-30 04:57 56.03317 43.19604 35201 ft 463 kts 93°
2026-04-30 04:57 56.03129 43.31145 35200 ft 463 kts 94°
2026-04-30 04:58 56.03577 43.42652 35201 ft 465 kts 85°
2026-04-30 04:58 56.04321 43.54162 35200 ft 466 kts 85°
2026-04-30 04:59 56.05074 43.65625 35200 ft 466 kts 85°
2026-04-30 04:59 56.05839 43.77168 35199 ft 467 kts 85°
2026-04-30 05:00 56.06602 43.88650 35199 ft 467 kts 85°
2026-04-30 05:00 56.07370 44.00220 35199 ft 467 kts 85°
2026-04-30 05:01 56.08133 44.11781 35199 ft 467 kts 85°
2026-04-30 05:01 56.08887 44.23258 35199 ft 466 kts 85°
2026-04-30 05:02 56.09638 44.34811 35198 ft 466 kts 85°
2026-04-30 05:02 56.10383 44.46381 35198 ft 467 kts 85°
2026-04-30 05:03 56.11115 44.57872 35198 ft 466 kts 85°
2026-04-30 05:03 56.11539 44.69435 35198 ft 463 kts 95°
2026-04-30 05:04 56.11223 44.80993 35195 ft 464 kts 95°
2026-04-30 05:04 56.10912 44.92507 35194 ft 465 kts 95°
2026-04-30 05:05 56.10605 45.04093 35192 ft 465 kts 95°
2026-04-30 05:05 56.10308 45.15696 35190 ft 466 kts 95°
2026-04-30 05:06 56.09876 45.33107 35189 ft 466 kts 95°
2026-04-30 05:06 56.09591 45.44662 35188 ft 467 kts 95°
2026-04-30 05:07 56.09301 45.56306 35187 ft 468 kts 95°
2026-04-30 05:07 56.09008 45.67958 35185 ft 468 kts 95°
2026-04-30 05:08 56.08709 45.79608 35183 ft 468 kts 96°
2026-04-30 05:08 56.08405 45.91174 35182 ft 468 kts 96°
2026-04-30 05:09 56.08091 46.02841 35180 ft 468 kts 96°
2026-04-30 05:09 56.07768 46.14477 35178 ft 468 kts 96°
2026-04-30 05:10 56.07438 46.26050 35177 ft 468 kts 96°
2026-04-30 05:10 56.07097 46.37696 35176 ft 468 kts 96°
2026-04-30 05:11 56.06746 46.49329 35174 ft 468 kts 96°
2026-04-30 05:11 56.06687 46.61014 35173 ft 469 kts 92°
2026-04-30 05:12 56.06754 46.72637 35173 ft 470 kts 92°
2026-04-30 05:12 56.06832 46.84345 35172 ft 471 kts 92°
2026-04-30 05:13 56.06917 46.96078 35171 ft 471 kts 92°
2026-04-30 05:13 56.07003 47.07826 35170 ft 472 kts 92°
2026-04-30 05:14 56.07087 47.19515 35169 ft 472 kts 92°
2026-04-30 05:14 56.07167 47.31266 35170 ft 471 kts 92°
2026-04-30 05:15 56.07242 47.43026 35170 ft 471 kts 93°
2026-04-30 05:15 56.07309 47.54689 35170 ft 471 kts 93°
2026-04-30 05:16 56.07368 47.66437 35170 ft 471 kts 93°
2026-04-30 05:16 56.07419 47.78179 35169 ft 471 kts 93°
2026-04-30 05:17 56.07460 47.89933 35170 ft 471 kts 94°
2026-04-30 05:17 56.07398 48.01672 35169 ft 471 kts 94°
2026-04-30 05:18 56.07330 48.13352 35169 ft 471 kts 94°
2026-04-30 05:18 56.07274 48.25084 35169 ft 471 kts 94°
2026-04-30 05:19 56.07224 48.36816 35169 ft 471 kts 94°
2026-04-30 05:19 56.07178 48.48564 35170 ft 472 kts 94°
2026-04-30 05:20 56.07130 48.60327 35171 ft 473 kts 94°
2026-04-30 05:20 56.07079 48.72108 35171 ft 474 kts 94°
2026-04-30 05:21 56.07022 48.83860 35171 ft 475 kts 94°
2026-04-30 05:21 56.06959 48.95712 35170 ft 476 kts 95°
2026-04-30 05:22 56.06888 49.07514 35170 ft 476 kts 95°
2026-04-30 05:22 56.06808 49.19383 35172 ft 477 kts 95°
2026-04-30 05:23 56.06719 49.31279 35170 ft 478 kts 95°
2026-04-30 05:23 56.06620 49.43198 35170 ft 479 kts 95°
2026-04-30 05:24 56.06509 49.55116 35170 ft 479 kts 96°
2026-04-30 05:24 56.06388 49.66992 35169 ft 479 kts 96°
2026-04-30 05:25 56.06256 49.78946 35169 ft 479 kts 96°
2026-04-30 05:25 56.05984 49.90873 35169 ft 479 kts 97°
2026-04-30 05:26 56.05702 50.02710 35169 ft 479 kts 97°
2026-04-30 05:26 56.05439 50.14625 35168 ft 479 kts 97°
2026-04-30 05:27 56.05190 50.26533 35168 ft 478 kts 97°
2026-04-30 05:27 56.04947 50.38437 35168 ft 478 kts 97°
2026-04-30 05:28 56.04709 50.50261 35168 ft 479 kts 97°
2026-04-30 05:28 56.04467 50.62183 35168 ft 480 kts 97°
2026-04-30 05:29 56.04222 50.74131 35168 ft 481 kts 97°
2026-04-30 05:29 56.04008 50.86126 35169 ft 484 kts 95°
2026-04-30 05:30 56.04001 50.98111 35169 ft 485 kts 95°
2026-04-30 05:30 56.04020 51.10202 35169 ft 486 kts 95°
2026-04-30 05:31 56.04043 51.22315 35170 ft 487 kts 95°
2026-04-30 05:31 56.04068 51.34381 35169 ft 488 kts 95°
2026-04-30 05:32 56.04092 51.46550 35169 ft 489 kts 96°
2026-04-30 05:32 56.04110 51.58724 35169 ft 490 kts 96°
2026-04-30 05:33 56.04121 51.70915 35169 ft 490 kts 96°
2026-04-30 05:33 56.04147 51.83125 35168 ft 492 kts 94°
2026-04-30 05:34 56.04504 51.95325 35169 ft 494 kts 92°
2026-04-30 05:34 56.04912 52.07623 35169 ft 494 kts 92°
2026-04-30 05:35 56.05325 52.19910 35171 ft 494 kts 92°
2026-04-30 05:35 56.05738 52.32213 35171 ft 494 kts 92°
2026-04-30 05:36 56.06145 52.44407 35171 ft 494 kts 92°
2026-04-30 05:36 56.06549 52.56712 35172 ft 494 kts 92°
2026-04-30 05:37 56.06888 52.69013 35172 ft 494 kts 94°
2026-04-30 05:37 56.07177 52.81235 35172 ft 495 kts 94°
2026-04-30 05:38 56.07474 52.93549 35173 ft 495 kts 94°
2026-04-30 05:38 56.07773 53.05854 35173 ft 494 kts 94°
2026-04-30 05:39 56.08069 53.18170 35174 ft 495 kts 94°
2026-04-30 05:39 56.08360 53.30440 35176 ft 497 kts 94°
2026-04-30 05:40 56.08649 53.42845 35176 ft 498 kts 94°
2026-04-30 05:40 56.08928 53.55257 35176 ft 499 kts 95°
2026-04-30 05:41 56.09138 53.67665 35176 ft 498 kts 96°
2026-04-30 05:41 56.09331 53.79979 35174 ft 498 kts 96°
2026-04-30 05:42 56.09531 53.92378 35176 ft 498 kts 96°
2026-04-30 05:42 56.09733 54.04784 35176 ft 498 kts 96°
2026-04-30 05:43 56.09934 54.17188 35177 ft 498 kts 96°
2026-04-30 05:43 56.10129 54.29514 35178 ft 498 kts 96°
2026-04-30 05:44 56.10767 54.41958 35183 ft 505 kts 88°
2026-04-30 05:44 56.11821 54.54427 35180 ft 506 kts 87°
2026-04-30 05:45 56.12706 54.64810 35181 ft 507 kts 87°
2026-04-30 05:45 56.13780 54.77303 35181 ft 507 kts 87°
2026-04-30 05:46 56.14856 54.89813 35182 ft 507 kts 87°
2026-04-30 05:46 56.15930 55.02328 35182 ft 507 kts 87°
2026-04-30 05:47 56.16998 55.14846 35182 ft 508 kts 87°
2026-04-30 05:47 56.18055 55.27318 35183 ft 509 kts 88°
2026-04-30 05:48 56.19114 55.39922 35183 ft 510 kts 88°
2026-04-30 05:48 56.20167 55.52571 35183 ft 512 kts 88°
2026-04-30 05:49 56.21164 55.65143 35183 ft 511 kts 89°
2026-04-30 05:49 56.22085 55.77809 35182 ft 511 kts 90°
2026-04-30 05:50 56.23017 55.90487 35182 ft 511 kts 89°
2026-04-30 05:50 56.23958 56.03177 35186 ft 511 kts 89°
2026-04-30 05:51 56.24895 56.15784 35186 ft 511 kts 89°
2026-04-30 05:51 56.25837 56.28504 35187 ft 511 kts 89°
2026-04-30 05:52 56.26773 56.41198 35196 ft 511 kts 89°
2026-04-30 05:52 56.27696 56.53807 35197 ft 511 kts 89°
2026-04-30 05:53 56.28574 56.66504 35196 ft 510 kts 90°
2026-04-30 05:53 56.29411 56.79195 35196 ft 510 kts 90°
2026-04-30 05:54 56.30256 56.91880 35197 ft 510 kts 89°
2026-04-30 05:54 56.31104 57.04513 35196 ft 511 kts 89°
2026-04-30 05:55 56.31956 57.17255 35197 ft 512 kts 89°
2026-04-30 05:55 56.32808 57.30035 35197 ft 514 kts 90°
2026-04-30 05:56 56.33637 57.42764 35198 ft 514 kts 90°
2026-04-30 05:56 56.34412 57.55614 35198 ft 515 kts 90°
2026-04-30 05:57 56.35191 57.68458 35199 ft 515 kts 90°
2026-04-30 05:57 56.35970 57.81285 34614 ft 526 kts 91°
2026-04-30 05:58 56.36378 57.87943 33491 ft 541 kts 91°
2026-04-30 05:58 56.36796 57.94769 32534 ft 550 kts 91°
2026-04-30 05:58 56.37211 58.01579 32292 ft 541 kts 91°
2026-04-30 05:58 56.37618 58.08350 31560 ft 543 kts 91°
2026-04-30 05:59 56.38020 58.15014 31301 ft 534 kts 91°
2026-04-30 05:59 56.38418 58.21676 30644 ft 535 kts 91°
2026-04-30 05:59 56.38813 58.28316 30314 ft 528 kts 92°
2026-04-30 05:59 56.39201 58.34904 29756 ft 527 kts 92°
2026-04-30 06:00 56.39566 58.41434 29380 ft 520 kts 92°
2026-04-30 06:00 56.39897 58.47937 28847 ft 518 kts 92°
2026-04-30 06:00 56.40228 58.54390 28467 ft 512 kts 92°
2026-04-30 06:00 56.40557 58.60791 28000 ft 508 kts 91°
2026-04-30 06:01 56.40880 58.67042 27566 ft 504 kts 91°
2026-04-30 06:01 56.41208 58.73319 27115 ft 500 kts 91°
2026-04-30 06:01 56.41534 58.79561 26708 ft 495 kts 91°
2026-04-30 06:01 56.41855 58.85740 26260 ft 491 kts 90°
2026-04-30 06:02 56.42173 58.91868 25844 ft 487 kts 90°
2026-04-30 06:02 56.42490 58.97938 25432 ft 482 kts 90°
2026-04-30 06:02 56.42798 59.03886 24944 ft 479 kts 90°
2026-04-30 06:02 56.43107 59.09850 24556 ft 474 kts 90°
2026-04-30 06:03 56.43421 59.15755 24134 ft 470 kts 89°
2026-04-30 06:03 56.43744 59.21633 23676 ft 467 kts 89°
2026-04-30 06:03 56.44067 59.27446 23214 ft 464 kts 89°
2026-04-30 06:03 56.44385 59.33136 22909 ft 457 kts 89°
2026-04-30 06:04 56.44706 59.38863 22346 ft 457 kts 89°
2026-04-30 06:04 56.45027 59.44565 21940 ft 453 kts 89°
2026-04-30 06:04 56.45343 59.50211 21593 ft 447 kts 89°
2026-04-30 06:05 56.45960 59.61269 20274 ft 435 kts 89°
2026-04-30 06:05 56.46252 59.66611 19470 ft 427 kts 89°
2026-04-30 06:05 56.46540 59.71938 18556 ft 423 kts 89°
2026-04-30 06:05 56.46823 59.77201 18200 ft 412 kts 89°
2026-04-30 06:06 56.47095 59.82319 17201 ft 408 kts 89°
2026-04-30 06:06 56.47359 59.87412 16296 ft 402 kts 89°
2026-04-30 06:06 56.47618 59.92434 15393 ft 396 kts 89°
2026-04-30 06:06 56.47871 59.97357 14494 ft 390 kts 88°
2026-04-30 06:07 56.48118 60.02213 13590 ft 385 kts 88°
2026-04-30 06:07 56.48360 60.06969 12945 ft 372 kts 88°
2026-04-30 06:07 56.48589 60.11522 12491 ft 357 kts 88°
2026-04-30 06:07 56.48805 60.15936 12058 ft 357 kts 88°
2026-04-30 06:08 56.49026 60.20416 11615 ft 356 kts 88°
2026-04-30 06:08 56.49245 60.24889 11172 ft 356 kts 88°
2026-04-30 06:08 56.49462 60.29293 11016 ft 344 kts 87°
2026-04-30 06:08 56.49670 60.33538 10926 ft 332 kts 88°
2026-04-30 06:09 56.49868 60.37627 10818 ft 320 kts 88°
2026-04-30 06:09 56.50056 60.41612 10408 ft 321 kts 88°
2026-04-30 06:09 56.50237 60.45595 10099 ft 317 kts 88°
2026-04-30 06:09 56.50394 60.49540 9855 ft 310 kts 88°
2026-04-30 06:10 56.50558 60.53464 9471 ft 310 kts 87°
2026-04-30 06:10 56.50726 60.57284 9388 ft 298 kts 87°
2026-04-30 06:10 56.50891 60.60972 9309 ft 290 kts 87°
2026-04-30 06:10 56.51056 60.64603 9235 ft 288 kts 87°
2026-04-30 06:11 56.51217 60.68163 9159 ft 286 kts 87°
2026-04-30 06:11 56.51381 60.71759 9083 ft 285 kts 87°
2026-04-30 06:11 56.51535 60.75327 9007 ft 284 kts 87°
2026-04-30 06:11 56.51694 60.78889 8932 ft 283 kts 87°
2026-04-30 06:12 56.51853 60.82441 8855 ft 283 kts 87°
2026-04-30 06:12 56.52012 60.86000 8778 ft 282 kts 87°
2026-04-30 06:12 56.52170 60.89541 8706 ft 281 kts 87°
2026-04-30 06:12 56.52325 60.93027 8618 ft 271 kts 87°
2026-04-30 06:13 56.52471 60.96337 8367 ft 264 kts 87°
2026-04-30 06:13 56.52617 60.99668 8189 ft 266 kts 87°
2026-04-30 06:13 56.52761 61.02989 8060 ft 263 kts 87°
2026-04-30 06:13 56.52939 61.06258 7641 ft 261 kts 78°
2026-04-30 06:14 56.53700 61.09203 7089 ft 256 kts 52°
2026-04-30 06:14 56.55038 61.11269 6469 ft 250 kts 22°
2026-04-30 06:14 56.56667 61.12014 5932 ft 238 kts 359°
2026-04-30 06:14 56.58289 61.12176 5513 ft 235 kts 358°
2026-04-30 06:15 56.59929 61.12293 5244 ft 236 kts 357°
2026-04-30 06:15 56.61566 61.12369 4954 ft 235 kts 357°
2026-04-30 06:15 56.63205 61.12423 4595 ft 236 kts 356°
2026-04-30 06:15 56.64839 61.12406 4380 ft 232 kts 353°
2026-04-30 06:16 56.66421 61.12147 4102 ft 228 kts 348°
2026-04-30 06:16 56.67914 61.11574 3850 ft 217 kts 341°
2026-04-30 06:16 56.69350 61.10879 3575 ft 213 kts 340°
2026-04-30 06:16 56.70770 61.10079 3304 ft 210 kts 332°
2026-04-30 06:17 56.71969 61.08722 3253 ft 198 kts 317°
2026-04-30 06:17 56.72735 61.06773 3268 ft 186 kts 291°
2026-04-30 06:17 56.73075 61.04503 2945 ft 181 kts 278°
2026-04-30 06:17 56.73236 61.02331 2664 ft 171 kts 274°
2026-04-30 06:18 56.73344 61.00194 2432 ft 169 kts 273°
2026-04-30 06:18 56.73434 60.98077 2217 ft 164 kts 273°
2026-04-30 06:18 56.73513 60.96073 2028 ft 153 kts 274°
2026-04-30 06:18 56.73587 60.94244 1871 ft 139 kts 274°
2026-04-30 06:19 56.73655 60.92530 1702 ft 133 kts 274°
2026-04-30 06:19 56.73721 60.90865 1556 ft 130 kts 274°
2026-04-30 06:19 56.73785 60.89228 1418 ft 129 kts 274°
2026-04-30 06:19 56.73849 60.87602 1283 ft 128 kts 274°
2026-04-30 06:20 56.73913 60.85980 1145 ft 128 kts 274°
2026-04-30 06:20 56.73975 60.84383 1008 ft 128 kts 274°
2026-04-30 06:20 56.74039 60.82769 873 ft 128 kts 274°
2026-04-30 06:20 56.74102 60.81155 785 ft 124 kts 274°
2026-04-30 06:21 56.74151 60.79881 782 ft 73 kts 274°
2026-04-30 06:21 56.74174 60.79318 782 ft 21 kts 274°
2026-04-30 06:21 56.74209 60.79062 782 ft 21 kts 336°
2026-04-30 06:21 56.74362 60.79080 782 ft 23 kts
2026-04-30 06:22 56.74530 60.79122 782 ft 25 kts
2026-04-30 06:22 56.74688 60.79133 782 ft 23 kts
2026-04-30 06:22 56.74840 60.79143 782 ft 19 kts 21°
2026-04-30 06:22 56.74929 60.79176 782 ft 0 kts 353°